Weather in Aix-en-Provence

France     43°31′38″N   5°26′33″E
temp.,
°C
wind,
m/s
gust,
m/s
humid.,
%
clouds,
%
prec.,
mm/h
press.,
hPa
HPBL,
m
4 march, thu
thu401:00+10ne115980 0.0 102830
04:00+9e116294 0.0 102632
07:00+8ene116396 0.0 102523
10:00+11wsw115598 0.0 1024355
13:00+14wsw335767 0.0 1023969
16:00+13wsw446570 0.0 1020797
19:00+11wsw347168 0.0 1020478
22:00+10wsw23810 0.0 1020361
5 march, fri
fri501:00+9w13893 0.0 1019269
04:00+9wnw138685 0.1 1018333
07:00+9wnw139092 0.1 1018220
10:00+10w2376100 0.0 1017514
13:00+13wnw2262100 0.0 1017660
16:00+15wnw2348100 0.0 10161180
19:00+12nw365574 0.0 1017350
22:00+10n11620 0.0 101954
6 march, sat
sat601:00+9ne22720 0.0 1020125
04:00+8ene22810 0.0 1020102
07:00+7ene22812 0.0 102182
10:00+11e247053 0.0 1023496
13:00+14se345647 0.2 10231134
16:00+14ssw235889 0.6 10231044
19:00+12s017293 2.8 1024235
22:00+10ese357489 1.6 1025498
7 march, sun
sun701:00+9e238063 1.7 1025230
04:00+8ene228225 0.0 1024139
07:00+8ene238154 0.0 1024188
10:00+10e246259 0.0 1024585
13:00+13ese224841 0.0 10231270
16:00+12wsw435880 0.1 1020807
19:00+10wsw237088 0.2 1020509
22:00+10w237480 0.0 1020529
8 march, mon
mon801:00+9w228172 0.0 1019314
04:00+8wnw13851 0.0 1018252
07:00+7w11861 0.0 101850
10:00+10wnw22690 0.0 1018527
13:00+13wnw44420 0.0 10171424
16:00+13nw56410 0.0 10161412
19:00+10nw58440 0.0 1016596
22:00+8nw37450 0.0 1017432